Weather reports worldwide

Advertisment
Northolt, United Kingdom (3672): temperature & dewpoint: 14.02.2020 18:00:00 - 20.02.2020 18:00:00 (GMT)Northolt, United Kingdom (3672): temperature -20cm & temperature -100cm: 14.02.2020 18:00:00 - 20.02.2020 18:00:00 (GMT)Northolt, United Kingdom (3672): wind speed & gusts: 14.02.2020 18:00:00 - 20.02.2020 18:00:00 (GMT)Northolt, United Kingdom (3672): wind direction: 14.02.2020 18:00:00 - 20.02.2020 18:00:00 (GMT)Northolt, United Kingdom (3672): reduced air pressure: 14.02.2020 18:00:00 - 20.02.2020 18:00:00 (GMT)Northolt, United Kingdom (3672): visibility: 14.02.2020 18:00:00 - 20.02.2020 18:00:00 (GMT)Northolt, United Kingdom (3672): precipitation: 14.02.2020 18:00:00 - 20.02.2020 18:00:00 (GMT)
Date & Time tt [°C] td [°C] tt -20cm [°C] tt -100cm [°C] ff [km/h] ff [kn] fx [km/h] fx [kn] dd ppp [hPa] vv [km] rr [mm]
20.02.2020 18:00:00 - - - - - - - - - - - -
20.02.2020 17:00:00 6,5 2,7 - - 24 13 - - NW 1012,5 10 0,0
20.02.2020 16:00:00 6,8 3,4 - - 26 14 - - W 1010,6 10 0,0
20.02.2020 15:00:00 6,1 3,8 - - 21 11 55 30 WNW 1009,1 10 0,6
20.02.2020 14:00:00 7,2 5,3 - - 29 16 72 39 WNW 1007,0 10 3,2
20.02.2020 13:00:00 9,9 8,7 - - 35 19 57 31 SW 1004,7 4,0 0,6
20.02.2020 12:00:00 10,0 8,2 - - 35 19 59 32 SW 1005,3 10 0,0
20.02.2020 11:00:00 9,9 7,8 - - 35 19 55 30 SW 1006,4 10 0,0
20.02.2020 10:00:00 9,9 7,7 - - 31 17 52 28 SW 1007,5 10 0,0
20.02.2020 09:00:00 9,9 7,5 6,9 8,0 29 16 52 28 SW 1008,0 10 0,0
20.02.2020 08:00:00 9,0 7,6 - - 28 15 46 25 SW 1008,3 10 0,2
20.02.2020 07:00:00 8,7 7,5 - - 26 14 - - SW 1009,1 9 0,0
20.02.2020 06:00:00 9,3 6,8 - - 24 13 - - SW 1009,6 30 0,0
20.02.2020 05:00:00 9,2 6,6 - - 26 14 - - SW 1010,2 30 0,0
20.02.2020 04:00:00 9,2 6,6 - - 28 15 - - SW 1010,7 10 0,0
20.02.2020 03:00:00 9,0 6,7 - - 21 11 - - SW 1011,6 30 0,0
20.02.2020 02:00:00 8,8 7,4 - - 22 12 - - SW 1012,2 35 0,0
20.02.2020 01:00:00 8,7 7,4 - - 21 11 - - WSW 1012,9 30 0,0
20.02.2020 00:00:00 9,4 6,6 - - 24 13 - - SW 1013,3 30 0,0
19.02.2020 23:00:00 8,9 6,5 - - 21 11 - - SW 1013,8 30 0,0
19.02.2020 22:00:00 9,0 6,7 - - 24 13 - - WSW 1014,4 30 0,0
19.02.2020 21:00:00 8,9 7,2 - - 18 10 - - WSW 1014,9 10 0,0
19.02.2020 20:00:00 8,7 7,5 - - 18 10 - - SW 1015,3 10 0,0
19.02.2020 19:00:00 8,9 7,4 - - 21 11 - - WSW 1015,9 7 0,2
19.02.2020 18:00:00 8,8 7,3 - - 15 8 - - SSW 1016,5 10 0,0
19.02.2020 17:00:00 8,7 7,3 - - 16 9 - - SW 1017,1 10 0,0
19.02.2020 16:00:00 8,3 7,1 - - 18 10 - - SW 1018,0 10 0,2
19.02.2020 15:00:00 7,6 6,5 - - 15 8 - - SW 1019,1 10 0,0
19.02.2020 14:00:00 6,8 5,8 - - 13 7 - - SW 1020,2 10 0,6
19.02.2020 13:00:00 6,5 4,9 - - 15 8 - - WSW 1021,1 10 0,4
19.02.2020 12:00:00 6,2 3,5 - - 16 9 - - WSW 1022,1 10 0,2
19.02.2020 11:00:00 6,2 2,7 - - 15 8 - - WSW 1021,9 10 0,0
19.02.2020 10:00:00 5,3 1,9 - - 15 8 - - WSW 1021,9 10 0,0
19.02.2020 09:00:00 4,6 1,5 6,9 8,0 16 9 - - WSW 1021,7 10 0,0
19.02.2020 08:00:00 3,5 0,8 - - 15 8 - - WSW 1021,5 10 0,0
19.02.2020 07:00:00 2,8 0,3 - - 11 6 - - W 1021,1 10 0,0
19.02.2020 06:00:00 2,6 0,1 - - 11 6 - - W 1020,6 24 0,0
19.02.2020 05:00:00 3,1 -0,1 - - 9 5 - - WNW 1019,7 10 -
19.02.2020 04:00:00 3,8 0,2 - - 22 12 - - WNW 1018,8 30 0,0
19.02.2020 03:00:00 3,7 0,5 - - 21 11 - - WNW 1018,6 10 0,0
19.02.2020 02:00:00 3,8 0,6 - - 16 9 - - WNW 1018,1 35 0,0
19.02.2020 01:00:00 4,0 1,0 - - 21 11 - - WNW 1017,5 10 0,0
19.02.2020 00:00:00 4,5 2,2 - - 16 9 - - W 1016,4 30 0,0
18.02.2020 23:00:00 4,6 3,1 - - 21 11 - - W 1015,7 10 0,0
18.02.2020 22:00:00 4,2 3,0 - - 18 10 54 29 WNW 1015,6 10 2,0
18.02.2020 21:00:00 4,9 3,3 - - 28 15 46 25 WNW 1015,1 10 2,2
18.02.2020 20:00:00 7,3 3,1 - - 26 14 - - WSW 1014,4 10 0,0
18.02.2020 19:00:00 8,3 2,7 - - 34 18 55 30 WSW 1014,6 10 0,0
18.02.2020 18:00:00 8,8 5,3 - - 24 13 - - WSW 1014,8 10 0,0
18.02.2020 17:00:00 8,5 5,0 - - 26 14 - - SW 1015,5 10 0,0
18.02.2020 16:00:00 7,8 4,8 - - 22 12 46 25 WSW 1016,4 10 0,2
18.02.2020 15:00:00 7,3 4,4 - - 37 20 65 35 W 1017,5 10 0,4
18.02.2020 14:00:00 10,4 3,5 - - 35 19 52 28 WSW 1017,7 10 0,0
18.02.2020 13:00:00 10,3 3,5 - - 31 17 57 31 W 1018,7 30 0,0
18.02.2020 12:00:00 9,9 3,0 - - 35 19 54 29 WSW 1019,6 10 0,0
18.02.2020 11:00:00 8,4 2,9 - - 28 15 - - WSW 1019,8 10 0,0
18.02.2020 10:00:00 7,2 2,7 - - 18 10 - - WSW 1020,3 10 -
18.02.2020 09:00:00 6,3 2,7 7,2 7,9 22 12 - - WSW 1020,4 10 0,0
18.02.2020 08:00:00 5,0 2,3 - - 18 10 - - WSW 1020,5 10 -
18.02.2020 07:00:00 4,4 1,7 - - 18 10 - - WSW 1020,1 10 0,0
18.02.2020 06:00:00 4,5 1,8 - - 21 11 - - WSW 1019,6 28 0,0
18.02.2020 05:00:00 4,3 1,4 - - 16 9 - - WSW 1019,7 10 0,0
18.02.2020 04:00:00 4,4 1,5 - - 16 9 - - WSW 1019,2 30 0,0
18.02.2020 03:00:00 4,3 1,2 - - 15 8 - - WSW 1019,5 10 0,0
18.02.2020 02:00:00 4,6 1,5 - - 16 9 - - WSW 1019,3 10 0,0
18.02.2020 01:00:00 4,9 1,8 - - 22 12 - - WSW 1018,7 10 0,0
18.02.2020 00:00:00 4,9 1,6 - - 22 12 - - WSW 1018,1 23 0,0
17.02.2020 23:00:00 5,1 1,5 - - 22 12 - - WSW 1017,3 10 0,0
17.02.2020 22:00:00 5,6 1,2 - - 26 14 - - W 1016,6 10 0,0
17.02.2020 21:00:00 6,5 2,0 - - 26 14 48 26 W 1015,8 10 0,0
17.02.2020 20:00:00 7,4 2,5 - - 29 16 46 25 W 1014,7 10 0,0
17.02.2020 19:00:00 8,3 2,5 - - 34 18 52 28 W 1013,9 35 0,0
17.02.2020 18:00:00 8,7 2,8 - - 31 17 50 27 W 1012,7 10 0,0
17.02.2020 17:00:00 9,2 3,0 - - 35 19 54 29 W 1011,6 10 0,0
17.02.2020 16:00:00 10,3 2,8 - - 37 20 59 32 W 1010,5 10 0,0
17.02.2020 15:00:00 10,6 4,2 - - 29 16 52 28 W 1009,5 10 0,0
17.02.2020 14:00:00 9,8 5,1 - - 29 16 - - W 1008,9 10 0,0
17.02.2020 13:00:00 9,4 3,9 - - 29 16 50 27 W 1008,5 10 0,0
17.02.2020 12:00:00 9,8 3,5 - - 35 19 59 32 WSW 1008,0 10 0,0
17.02.2020 11:00:00 9,2 2,9 - - 35 19 54 29 WSW 1007,7 10 0,0
17.02.2020 10:00:00 8,1 2,6 - - 29 16 - - WSW 1007,3 40 0,0
17.02.2020 09:00:00 6,8 1,3 7,7 7,7 26 14 - - WSW 1007,2 50 0,0
17.02.2020 08:00:00 6,0 1,2 - - 28 15 55 30 WSW 1006,7 50 0,4
17.02.2020 07:00:00 6,5 2,5 - - 41 22 65 35 WSW 1006,6 9 0,0
17.02.2020 06:00:00 7,3 2,3 - - 28 15 50 27 WSW 1005,9 22 0,0
17.02.2020 05:00:00 6,9 1,7 - - 24 13 - - SW 1005,6 19 0,0
17.02.2020 04:00:00 6,9 1,4 - - 26 14 - - SW 1006,1 18 0,0
17.02.2020 03:00:00 6,2 1,0 - - 26 14 - - SW 1006,3 18 0,0
17.02.2020 02:00:00 6,3 0,7 - - 29 16 46 25 WSW 1006,4 18 0,0
17.02.2020 01:00:00 5,7 0,8 - - 26 14 48 26 WSW 1006,1 22 0,0
17.02.2020 00:00:00 5,3 1,2 - - 29 16 57 31 WSW 1005,6 30 0,0
16.02.2020 23:00:00 5,9 1,3 - - 34 18 59 32 W 1004,2 28 0,0
16.02.2020 22:00:00 6,1 1,3 - - 34 18 67 36 WSW 1002,8 10 0,0
16.02.2020 21:00:00 5,8 3,0 - - 34 18 87 47 WSW 1001,7 25 0,6
16.02.2020 20:00:00 7,4 3,6 - - 34 18 48 26 WSW 1000,1 10 0,0
16.02.2020 19:00:00 7,4 4,3 - - 22 12 - - WSW 999,2 35 0,0
16.02.2020 18:00:00 7,3 5,0 - - 21 11 - - WSW 997,9 10 0,0
16.02.2020 17:00:00 7,3 5,0 - - 22 12 - - WSW 997,0 10 0,0
16.02.2020 16:00:00 7,3 5,5 - - 26 14 - - WSW 996,0 10 0,0
16.02.2020 15:00:00 7,0 5,7 - - 21 11 52 28 WSW 995,2 10 1,0
16.02.2020 14:00:00 7,7 6,1 - - 28 15 48 26 W 995,0 10 2,6
16.02.2020 13:00:00 8,5 7,3 - - 24 13 52 28 WSW 993,8 10 1,6
16.02.2020 12:00:00 9,4 7,9 - - 24 13 - - WSW 993,4 10 1,0
16.02.2020 11:00:00 10,0 8,3 - - 21 11 - - SW 993,7 10 0,6
16.02.2020 10:00:00 11,2 8,3 - - 29 16 - - SW 993,8 10 0,0
16.02.2020 09:00:00 10,3 9,2 7,7 7,7 22 12 - - SW 993,4 10 0,8
16.02.2020 08:00:00 9,9 8,9 - - 29 16 80 43 W 993,4 9 4,0
16.02.2020 07:00:00 12,8 11,6 - - 39 21 68 37 SW 990,9 7 0,8
16.02.2020 06:00:00 12,7 11,6 - - 44 24 68 37 SW 990,7 6 1,2
16.02.2020 05:00:00 12,6 11,5 - - 42 23 72 39 SW 991,4 6 1,6
16.02.2020 04:00:00 12,4 11,5 - - 35 19 67 36 SW 992,3 3,9 1,0
16.02.2020 03:00:00 12,5 11,3 - - 39 21 68 37 SW 993,4 9 0,2
16.02.2020 02:00:00 12,6 11,4 - - 39 21 67 36 SW 994,3 7 0,4
16.02.2020 01:00:00 12,7 11,3 - - 39 21 67 36 SW 995,5 8 0,0
16.02.2020 00:00:00 12,8 11,1 - - 41 22 63 34 SW 996,4 18 0,0
15.02.2020 23:00:00 12,5 11,1 - - 39 21 59 32 SW 996,9 24 0,0
15.02.2020 22:00:00 12,5 11,1 - - 34 18 57 31 SW 997,9 10 0,0
15.02.2020 21:00:00 12,5 10,9 - - 37 20 67 36 SW 998,7 10 0,0
15.02.2020 20:00:00 12,2 10,7 - - 42 23 74 40 SW 998,6 10 0,2
15.02.2020 19:00:00 11,8 10,4 - - 39 21 67 36 SW 998,4 7 0,4
15.02.2020 18:00:00 11,8 10,0 - - 48 26 74 40 SW 998,6 10 0,0
15.02.2020 17:00:00 12,0 10,2 - - 44 24 74 40 SW 999,2 10 0,6
15.02.2020 16:00:00 11,5 10,3 - - 39 21 67 36 SSW 1000,8 8 1,4
15.02.2020 15:00:00 11,5 10,1 - - 41 22 68 37 SSW 1002,4 10 0,8
15.02.2020 14:00:00 11,7 10,0 - - 39 21 67 36 SSW 1003,4 15 0,8
15.02.2020 13:00:00 11,6 9,9 - - 39 21 63 34 SSW 1005,1 10 0,2
15.02.2020 12:00:00 12,5 9,3 - - 41 22 76 41 SW 1006,3 10 0,0
15.02.2020 11:00:00 12,6 9,3 - - 41 22 61 33 SSW 1007,0 10 0,0
15.02.2020 10:00:00 12,2 9,6 - - 37 20 63 34 SSW 1008,2 10 0,0
15.02.2020 09:00:00 11,6 10,0 6,7 7,7 31 17 52 28 SSW 1009,3 8 0,0
15.02.2020 08:00:00 11,2 10,2 - - 28 15 52 28 SSW 1009,8 8 0,0
15.02.2020 07:00:00 10,9 10,2 - - 26 14 46 25 SSW 1010,7 6 0,2
15.02.2020 06:00:00 10,9 10,4 - - 22 12 - - SW 1010,9 8 0,2
15.02.2020 05:00:00 10,4 10,1 - - 21 11 - - SSW 1011,7 2,5 0,4
15.02.2020 04:00:00 10,3 10,0 - - 21 11 - - SSW 1012,4 3,2 0,4
15.02.2020 03:00:00 10,2 9,9 - - 18 10 - - SSW 1013,2 2,8 0,6
15.02.2020 02:00:00 10,1 9,7 - - 18 10 - - SSW 1014,1 5 0,0
15.02.2020 01:00:00 9,8 9,4 - - 15 8 - - SSW 1014,5 4,0 0,8
15.02.2020 00:00:00 9,8 9,2 - - 21 11 - - SSW 1014,9 3,3 0,4
14.02.2020 23:00:00 10,1 8,8 - - 24 13 - - SSW 1015,0 2,7 0,0
14.02.2020 22:00:00 10,6 8,3 - - 22 12 - - SSW 1015,6 10 0,0
14.02.2020 21:00:00 10,0 8,6 - - 24 13 - - SSW 1016,0 4,9 0,2
14.02.2020 20:00:00 10,5 7,8 - - 24 13 - - SW 1016,2 10 0,0
14.02.2020 19:00:00 10,2 7,7 - - 18 10 - - SSW 1016,5 10 0,0
14.02.2020 18:00:00 10,2 7,9 - - 22 12 - - SW 1016,8 10 0,0

tt = temperature
td = dewpoint
tt -20cm = temperature -20cm
tt -100cm = temperature -100cm
ff = wind speed
fx = gusts
dd = wind direction
ppp = reduced air pressure
vv = visibility
rr = precipitation

Next stations